Time,TemperatureF,DewpointF,PressureIn,WindDirection,WindDirectionDegrees,WindSpeedMPH,WindSpeedGustMPH,Humidity,HourlyPrecipIn,Conditions,Clouds,dailyrainin,SolarRadiationWatts/m^2,SoftwareType,DateUTC
2013-04-19 00:13:00,58.7,56.0,30.02,NNE,13,0.0,1.0,92,0.00,,,0.06,0,weatherlink.com 1.10,2013-04-19 04:13:00,
2013-04-19 00:29:00,58.4,56.0,30.01,NNE,13,0.0,0.0,93,0.00,,,0.06,0,weatherlink.com 1.10,2013-04-19 04:29:00,
2013-04-19 00:43:00,58.1,56.0,30.01,NNE,13,0.0,1.0,94,0.00,,,0.06,0,weatherlink.com 1.10,2013-04-19 04:43:00,
2013-04-19 00:59:00,58.0,57.0,30.00,NNE,13,0.0,0.0,95,0.00,,,0.06,0,weatherlink.com 1.10,2013-04-19 04:59:00,
2013-04-19 01:14:00,57.5,56.0,29.99,NNE,13,0.0,0.0,96,0.00,,,0.06,0,weatherlink.com 1.10,2013-04-19 05:14:00,
2013-04-19 01:29:00,57.5,56.0,29.98,NNE,13,0.0,1.0,96,0.00,,,0.06,0,weatherlink.com 1.10,2013-04-19 05:29:00,
2013-04-19 02:00:00,57.3,57.0,29.97,NNE,13,0.0,1.0,97,0.00,,,0.00,0,weatherlink.com 1.10,2013-04-19 06:00:00,
2013-04-19 02:15:00,57.3,57.0,29.96,NNE,13,0.0,1.0,97,0.00,,,0.00,0,weatherlink.com 1.10,2013-04-19 06:15:00,
2013-04-19 02:30:00,57.3,57.0,29.96,NNE,13,0.0,0.0,97,0.00,,,0.00,0,weatherlink.com 1.10,2013-04-19 06:30:00,
2013-04-19 02:45:00,57.0,56.0,29.96,NNE,13,0.0,0.0,97,0.00,,,0.00,0,weatherlink.com 1.10,2013-04-19 06:45:00,
2013-04-19 03:02:00,56.7,56.0,29.95,NNE,13,0.0,0.0,98,0.00,,,0.00,0,weatherlink.com 1.10,2013-04-19 07:02:00,
2013-04-19 03:15:00,56.9,56.0,29.94,NNE,13,0.0,0.0,98,0.00,,,0.00,0,weatherlink.com 1.10,2013-04-19 07:15:00,
2013-04-19 03:33:00,57.0,57.0,29.93,NNE,13,0.0,0.0,98,0.00,,,0.00,0,weatherlink.com 1.10,2013-04-19 07:33:00,
2013-04-19 03:45:00,57.3,57.0,29.93,NNE,13,0.0,0.0,99,0.00,,,0.00,0,weatherlink.com 1.10,2013-04-19 07:45:00,
2013-04-19 04:02:00,57.5,57.0,29.93,NNE,13,0.0,0.0,99,0.00,,,0.00,0,weatherlink.com 1.10,2013-04-19 08:02:00,
2013-04-19 04:17:00,57.8,58.0,29.93,NNE,13,0.0,0.0,99,0.00,,,0.00,0,weatherlink.com 1.10,2013-04-19 08:17:00,
2013-04-19 04:32:00,58.3,58.0,29.91,NNE,13,0.0,0.0,99,0.00,,,0.00,0,weatherlink.com 1.10,2013-04-19 08:32:00,
2013-04-19 04:47:00,58.3,58.0,29.91,NNE,13,0.0,0.0,99,0.00,,,0.00,0,weatherlink.com 1.10,2013-04-19 08:47:00,
2013-04-19 05:02:00,58.3,58.0,29.91,NNE,13,0.0,1.0,99,0.00,,,0.00,0,weatherlink.com 1.10,2013-04-19 09:02:00,
2013-04-19 05:17:00,58.4,58.0,29.91,NNE,13,0.0,0.0,99,0.00,,,0.00,0,weatherlink.com 1.10,2013-04-19 09:17:00,
2013-04-19 05:32:00,59.0,59.0,29.91,ENE,76,0.0,2.0,99,0.00,,,0.00,0,weatherlink.com 1.10,2013-04-19 09:32:00,
2013-04-19 05:48:00,59.5,59.0,29.91,ENE,76,0.0,2.0,98,0.00,,,0.00,0,weatherlink.com 1.10,2013-04-19 09:48:00,
2013-04-19 06:03:00,59.6,59.0,29.91,ENE,76,0.0,1.0,98,0.00,,,0.00,0,weatherlink.com 1.10,2013-04-19 10:03:00,
2013-04-19 06:18:00,59.9,59.0,29.91,ENE,59,0.0,1.0,97,0.00,,,0.00,0,weatherlink.com 1.10,2013-04-19 10:18:00,
2013-04-19 06:33:00,60.2,59.0,29.90,East,85,0.0,2.0,97,0.00,,,0.00,5,weatherlink.com 1.10,2013-04-19 10:33:00,
2013-04-19 06:49:00,60.4,60.0,29.90,East,85,0.0,1.0,97,0.00,,,0.00,7,weatherlink.com 1.10,2013-04-19 10:49:00,
2013-04-19 07:03:00,60.5,60.0,29.90,East,85,0.0,0.0,97,0.00,,,0.00,21,weatherlink.com 1.10,2013-04-19 11:03:00,
2013-04-19 07:18:00,61.0,60.0,29.90,SSE,161,2.0,3.0,97,0.00,,,0.00,26,weatherlink.com 1.10,2013-04-19 11:18:00,
2013-04-19 07:33:00,61.5,61.0,29.89,South,171,0.0,2.0,97,0.00,,,0.00,14,weatherlink.com 1.10,2013-04-19 11:33:00,
2013-04-19 07:49:00,61.3,61.0,29.90,ESE,103,1.0,5.0,97,0.00,,,0.00,25,weatherlink.com 1.10,2013-04-19 11:49:00,
2013-04-19 08:03:00,61.3,61.0,29.89,SE,127,0.0,2.0,98,0.00,,,0.00,32,weatherlink.com 1.10,2013-04-19 12:03:00,
2013-04-19 08:19:00,61.5,61.0,29.89,NE,40,1.0,2.0,99,0.00,,,0.00,67,weatherlink.com 1.10,2013-04-19 12:19:00,
2013-04-19 08:34:00,61.8,62.0,29.89,NE,34,1.0,2.0,99,0.00,,,0.00,35,weatherlink.com 1.10,2013-04-19 12:34:00,
2013-04-19 08:49:00,61.8,62.0,29.89,SSE,149,2.0,7.0,99,0.00,,,0.00,62,weatherlink.com 1.10,2013-04-19 12:49:00,
2013-04-19 09:04:00,62.6,62.0,29.89,SSE,163,1.0,3.0,99,0.00,,,0.00,134,weatherlink.com 1.10,2013-04-19 13:04:00,
2013-04-19 09:19:00,63.5,63.0,29.88,SE,131,0.0,4.0,97,0.00,,,0.00,79,weatherlink.com 1.10,2013-04-19 13:19:00,
2013-04-19 09:35:00,64.2,63.0,29.88,SSW,200,1.0,4.0,96,0.00,,,0.00,156,weatherlink.com 1.10,2013-04-19 13:35:00,
2013-04-19 09:49:00,65.5,63.0,29.86,SSE,164,0.0,8.0,92,0.00,,,0.00,225,weatherlink.com 1.10,2013-04-19 13:49:00,
2013-04-19 10:05:00,66.8,63.0,29.85,SSE,155,0.0,5.0,86,0.00,,,0.00,104,weatherlink.com 1.10,2013-04-19 14:05:00,
2013-04-19 10:21:00,66.8,63.0,29.84,ENE,74,0.0,3.0,87,0.00,,,0.00,135,weatherlink.com 1.10,2013-04-19 14:21:00,
2013-04-19 10:35:00,66.6,63.0,29.84,SSE,157,0.0,5.0,88,0.00,,,0.00,84,weatherlink.com 1.10,2013-04-19 14:35:00,
2013-04-19 10:52:00,66.4,63.0,29.84,NE,37,0.0,3.0,88,0.00,,,0.00,77,weatherlink.com 1.10,2013-04-19 14:52:00,
2013-04-19 11:05:00,66.4,63.0,29.84,ENE,74,5.0,5.0,88,0.00,,,0.00,63,weatherlink.com 1.10,2013-04-19 15:05:00,
2013-04-19 11:22:00,66.6,63.0,29.83,ENE,63,1.0,7.0,88,0.00,,,0.00,74,weatherlink.com 1.10,2013-04-19 15:22:00,
2013-04-19 11:37:00,67.3,63.0,29.83,South,173,0.0,4.0,87,0.00,,,0.00,197,weatherlink.com 1.10,2013-04-19 15:37:00,
2013-04-19 11:52:00,68.6,63.0,29.81,ENE,76,0.0,4.0,83,0.00,,,0.00,181,weatherlink.com 1.10,2013-04-19 15:52:00,
2013-04-19 12:07:00,68.8,64.0,29.80,SE,128,0.0,5.0,83,0.00,,,0.00,84,weatherlink.com 1.10,2013-04-19 16:07:00,
2013-04-19 12:21:00,68.8,63.0,29.80,East,99,2.0,4.0,82,0.00,,,0.00,37,weatherlink.com 1.10,2013-04-19 16:21:00,
2013-04-19 12:37:00,68.1,63.0,29.80,SSW,210,0.0,6.0,84,0.00,,,0.00,60,weatherlink.com 1.10,2013-04-19 16:37:00,
2013-04-19 12:53:00,68.3,64.0,29.78,South,170,0.0,3.0,85,0.00,,,0.00,104,weatherlink.com 1.10,2013-04-19 16:53:00,
2013-04-19 13:07:00,68.8,64.0,29.77,SSE,160,1.0,3.0,84,0.00,,,0.00,105,weatherlink.com 1.10,2013-04-19 17:07:00,
2013-04-19 13:23:00,69.1,64.0,29.76,SSE,160,0.0,1.0,83,0.00,,,0.00,83,weatherlink.com 1.10,2013-04-19 17:23:00,
2013-04-19 13:37:00,69.4,64.0,29.75,SSE,161,0.0,4.0,83,0.00,,,0.00,142,weatherlink.com 1.10,2013-04-19 17:37:00,
2013-04-19 13:53:00,70.9,63.0,29.73,SW,235,2.0,6.0,77,0.00,,,0.00,327,weatherlink.com 1.10,2013-04-19 17:53:00,
2013-04-19 14:08:00,72.1,63.0,29.72,North,11,1.0,10.0,74,0.00,,,0.00,128,weatherlink.com 1.10,2013-04-19 18:08:00,
2013-04-19 14:23:00,72.3,63.0,29.71,South,184,2.0,7.0,73,0.00,,,0.00,156,weatherlink.com 1.10,2013-04-19 18:23:00,
2013-04-19 14:38:00,73.2,63.0,29.69,SSW,195,0.0,8.0,71,0.00,,,0.00,258,weatherlink.com 1.10,2013-04-19 18:38:00,
2013-04-19 14:53:00,74.0,63.0,29.68,South,178,4.0,10.0,68,0.00,,,0.00,181,weatherlink.com 1.10,2013-04-19 18:53:00,
2013-04-19 15:09:00,73.7,63.0,29.67,NE,53,2.0,4.0,69,0.00,,,0.00,183,weatherlink.com 1.10,2013-04-19 19:09:00,
2013-04-19 15:24:00,73.5,63.0,29.67,SSW,192,3.0,4.0,69,0.00,,,0.00,79,weatherlink.com 1.10,2013-04-19 19:24:00,
2013-04-19 15:38:00,73.0,62.0,29.66,SW,225,1.0,5.0,69,0.00,,,0.00,53,weatherlink.com 1.10,2013-04-19 19:38:00,
2013-04-19 15:54:00,72.8,62.0,29.65,SSE,153,2.0,8.0,69,0.00,,,0.00,26,weatherlink.com 1.10,2013-04-19 19:54:00,
2013-04-19 16:09:00,72.7,62.0,29.65,South,190,7.0,7.0,68,0.00,,,0.00,25,weatherlink.com 1.10,2013-04-19 20:09:00,
2013-04-19 16:24:00,72.7,62.0,29.64,WSW,250,2.0,5.0,70,0.00,,,0.00,84,weatherlink.com 1.10,2013-04-19 20:24:00,
2013-04-19 16:39:00,73.3,63.0,29.64,ESE,113,0.0,6.0,69,0.00,,,0.00,35,weatherlink.com 1.10,2013-04-19 20:39:00,
2013-04-19 16:55:00,73.2,63.0,29.63,North,351,1.0,3.0,70,0.00,,,0.00,100,weatherlink.com 1.10,2013-04-19 20:55:00,
2013-04-19 17:10:00,73.5,63.0,29.62,ESE,111,0.0,3.0,69,0.00,,,0.00,56,weatherlink.com 1.10,2013-04-19 21:10:00,
2013-04-19 17:25:00,73.5,62.0,29.63,South,186,1.0,8.0,68,0.00,,,0.00,37,weatherlink.com 1.10,2013-04-19 21:25:00,
2013-04-19 17:41:00,73.3,63.0,29.63,ESE,115,0.0,7.0,69,0.00,,,0.00,42,weatherlink.com 1.10,2013-04-19 21:41:00,
2013-04-19 17:55:00,73.3,62.0,29.62,WSW,240,0.0,9.0,68,0.00,,,0.00,16,weatherlink.com 1.10,2013-04-19 21:55:00,
2013-04-19 18:10:00,73.2,63.0,29.61,SE,144,0.0,3.0,71,0.00,,,0.00,18,weatherlink.com 1.10,2013-04-19 22:10:00,
2013-04-19 18:25:00,72.5,64.0,29.61,SE,140,3.0,6.0,74,0.00,,,0.00,9,weatherlink.com 1.10,2013-04-19 22:25:00,
2013-04-19 18:41:00,71.3,65.0,29.62,WSW,257,3.0,7.0,79,0.01,,,0.01,0,weatherlink.com 1.10,2013-04-19 22:41:00,
2013-04-19 18:56:00,68.9,66.0,29.62,SW,228,0.0,4.0,90,0.04,,,0.04,0,weatherlink.com 1.10,2013-04-19 22:56:00,
2013-04-19 19:11:00,68.1,66.0,29.63,SW,227,0.0,2.0,94,0.06,,,0.06,0,weatherlink.com 1.10,2013-04-19 23:11:00,
2013-04-19 19:26:00,66.4,65.0,29.64,SSW,212,2.0,7.0,95,0.08,,,0.08,0,weatherlink.com 1.10,2013-04-19 23:26:00,
2013-04-19 19:41:00,65.2,64.0,29.65,SW,220,0.0,6.0,96,0.08,,,0.09,0,weatherlink.com 1.10,2013-04-19 23:41:00,
2013-04-19 19:56:00,63.4,62.0,29.66,SW,228,1.0,6.0,96,0.06,,,0.10,0,weatherlink.com 1.10,2013-04-19 23:56:00,
2013-04-19 20:11:00,61.5,60.0,29.68,SW,227,1.0,5.0,96,0.05,,,0.11,0,weatherlink.com 1.10,2013-04-20 00:11:00,
2013-04-19 20:26:00,59.9,59.0,29.69,South,181,1.0,3.0,96,0.04,,,0.12,0,weatherlink.com 1.10,2013-04-20 00:26:00,
2013-04-19 20:43:00,57.8,56.0,29.70,NW,325,5.0,8.0,94,0.03,,,0.13,0,weatherlink.com 1.10,2013-04-20 00:43:00,
2013-04-19 20:57:00,56.5,55.0,29.71,West,264,2.0,5.0,93,0.03,,,0.13,0,weatherlink.com 1.10,2013-04-20 00:57:00,
2013-04-19 21:13:00,55.4,54.0,29.72,NW,312,0.0,3.0,93,0.01,,,0.13,0,weatherlink.com 1.10,2013-04-20 01:13:00,
2013-04-19 21:27:00,54.7,53.0,29.73,WSW,238,0.0,2.0,94,0.01,,,0.13,0,weatherlink.com 1.10,2013-04-20 01:27:00,
2013-04-19 21:43:00,54.1,53.0,29.75,WSW,238,0.0,1.0,94,0.01,,,0.14,0,weatherlink.com 1.10,2013-04-20 01:43:00,
2013-04-19 21:58:00,53.3,52.0,29.75,SW,234,0.0,3.0,95,0.01,,,0.14,0,weatherlink.com 1.10,2013-04-20 01:58:00,
2013-04-19 22:13:00,53.2,52.0,29.76,SW,234,0.0,0.0,96,0.01,,,0.14,0,weatherlink.com 1.10,2013-04-20 02:13:00,
2013-04-19 22:28:00,52.9,52.0,29.75,SW,234,0.0,0.0,96,0.01,,,0.14,0,weatherlink.com 1.10,2013-04-20 02:28:00,
2013-04-19 22:43:00,52.8,52.0,29.75,SW,234,0.0,0.0,97,0.00,,,0.14,0,weatherlink.com 1.10,2013-04-20 02:43:00,
2013-04-19 22:58:00,52.0,51.0,29.77,SW,234,0.0,0.0,97,0.00,,,0.14,0,weatherlink.com 1.10,2013-04-20 02:58:00,
2013-04-19 23:14:00,51.1,50.0,29.77,WNW,298,0.0,5.0,96,0.01,,,0.15,0,weatherlink.com 1.10,2013-04-20 03:14:00,
2013-04-19 23:29:00,50.7,49.0,29.77,WNW,292,0.0,2.0,95,0.01,,,0.15,0,weatherlink.com 1.10,2013-04-20 03:29:00,
2013-04-19 23:44:00,50.2,49.0,29.77,WNW,292,0.0,2.0,95,0.01,,,0.15,0,weatherlink.com 1.10,2013-04-20 03:44:00,
2013-04-19 23:59:00,50.1,49.0,29.78,WNW,292,0.0,1.0,95,0.00,,,0.15,0,weatherlink.com 1.10,2013-04-20 03:59:00,